This demonstration page uses our WeatherBlox Daily Observations layout. Learn more.

Left ArrowRight Arrow

40.92945, -100.16068

Hourly Observations for September 27, 2017

Temp ( °F °C ) Dew Point ( °F °C ) Humidity (%) Winds ( mph kmh ) Pressure ( in mb ) Visibility ( mi km ) Precip ( " mm )
12:15 am 00:15 Clear 51 10.3 47 8.5 89 89 Calm 30.21 1023 10 16 0.00 0.00
12:35 am 00:35 Clear 50 10 47 8.4 90 90 Calm 30.21 1023 10 16 0.00 0.00
12:55 am 00:55 Clear 48 9.1 46 7.6 90 90 Calm 30.21 1023 10 16 0.00 0.00
1:15 am 01:15 Clear 47 8.4 45 7.3 93 93 Calm 30.27 1025 10 16 0.00 0.00
1:35 am 01:35 Clear 47 8.4 45 7.4 94 94 Calm 30.27 1025 10 16 0.00 0.00
1:55 am 01:55 Clear 46 8 45 7 93 93 Calm 30.27 1025 10 16 0.00 0.00
2:15 am 02:15 Clear 47 8.1 45 7.1 93 93 Calm 30.27 1025 10 16 0.00 0.00
2:35 am 02:35 Clear 45 7.3 43 6.3 93 93 Calm 30.27 1025 10 16 0.00 0.00
2:55 am 02:55 Clear 45 7.2 43 6.2 93 93 Calm 30.27 1025 10 16 0.00 0.00
3:15 am 03:15 Clear 45 7 43 6 93 93 Calm 30.27 1025 10 16 0.00 0.00
3:35 am 03:35 Clear 44 6.8 43 5.9 94 94 Calm 30.27 1025 10 16 0.00 0.00
3:55 am 03:55 Mostly Cloudy with Mist and Fog 44 6.9 43 6 94 94 Calm 30.27 1025 1 2 0.00 0.00
4:15 am 04:15 Cloudy with Mist and Fog 44 6.5 42 5.6 94 94 Calm 30.27 1025 2 3 0.00 0.00
4:35 am 04:35 Mostly Cloudy with Mist and Fog 44 6.6 42 5.8 95 95 Calm 30.27 1025 5 8 0.00 0.00
4:55 am 04:55 Partly Cloudy 43 6.1 42 5.3 95 95 Calm 30.27 1025 10 16 0.00 0.00
5:15 am 05:15 Clear 43 6.1 42 5.3 95 95 Calm 30.27 1025 10 16 0.00 0.00
5:35 am 05:35 Mostly Cloudy with Mist and Fog 44 6.5 42 5.7 95 95 Calm 30.30 1026 2 2 0.00 0.00
5:55 am 05:55 Cloudy with Fog 43 6 41 5.1 94 94 Calm 30.30 1026 0 0 0.00 0.00
6:15 am 06:15 Cloudy with Mist and Fog 43 6 41 5.2 95 95 Calm 30.30 1026 1 1 0.00 0.00
6:35 am 06:35 Cloudy with Mist and Fog 43 6 41 5.2 95 95 Calm 30.30 1026 1 1 0.00 0.00
6:55 am 06:55 Cloudy with Mist and Fog 42 5.7 41 4.9 95 95 Calm 30.33 1027 1 1 0.00 0.00
7:15 am 07:15 Partly Cloudy with Mist and Fog 42 5.7 41 4.9 95 95 Calm 30.33 1027 3 5 0.00 0.00
7:35 am 07:35 Mostly Cloudy with Mist and Fog 42 5.7 41 5 95 95 Calm 30.33 1027 1 2 0.00 0.00
7:55 am 07:55 Sunny with Mist and Fog 42 5.5 40 4.7 95 95 Calm 30.36 1028 3 4 0.00 0.00
8:15 am 08:15 Partly Cloudy 42 5.8 41 5.2 96 96 Calm 30.36 1028 10 16 0.00 0.00
8:35 am 08:35 Sunny 45 7.3 44 6.6 95 95 Calm 30.33 1027 10 16 0.00 0.00
8:55 am 08:55 Sunny 48 8.7 46 8 95 95 Calm 30.33 1027 10 16 0.00 0.00
9:15 am 09:15 Sunny 50 10.1 49 9.4 95 95 Calm 30.30 1026 10 16 0.00 0.00
9:35 am 09:35 Sunny 52 11.3 51 10.6 96 96 Calm 30.30 1026 10 16 0.00 0.00
9:55 am 09:55 Sunny 55 12.5 53 11.6 94 94 Calm 30.30 1026 10 16 0.00 0.00
10:15 am 10:15 Sunny 57 13.9 53 11.7 87 87 Calm 30.27 1025 10 16 0.00 0.00
10:35 am 10:35 Sunny 60 15.5 53 11.9 79 79 WSW 5 7 30.27 1025 10 16 0.00 0.00
10:55 am 10:55 Sunny 64 17.5 51 10.8 65 65 SW 5 7 30.24 1024 10 16 0.00 0.00
11:15 am 11:15 Sunny 65 18.3 49 9.3 56 56 SW 7 11 30.24 1024 10 16 0.00 0.00
11:35 am 11:35 Sunny 66 18.8 48 8.7 52 52 WSW 6 9 30.24 1024 10 16 0.00 0.00
11:55 am 11:55 Sunny 67 19.2 47 8.5 50 50 W 7 11 30.21 1023 10 16 0.00 0.00
12:15 pm 12:15 Sunny 68 20 48 8.7 48 48 SSW 5 7 30.21 1023 10 16 0.00 0.00
12:35 pm 12:35 Sunny 69 20.4 46 7.9 45 45 SW 5 7 30.21 1023 10 16 0.00 0.00
12:55 pm 12:55 Sunny 69 20.6 47 8.4 46 46 Calm 30.21 1023 10 16 0.00 0.00
1:15 pm 13:15 Sunny 69 20.8 46 7.7 43 43 WSW 5 7 30.21 1023 10 16 0.00 0.00
1:35 pm 13:35 Sunny 69 20.6 45 7.1 42 42 W 5 7 30.18 1022 10 16 0.00 0.00
1:55 pm 13:55 Sunny 72 22 47 8.1 41 41 SW 6 9 30.18 1022 10 16 0.00 0.00
2:15 pm 14:15 Sunny 71 21.6 45 7 39 39 Calm 30.18 1022 10 16 0.00 0.00
2:35 pm 14:35 Mostly Cloudy 70 21.2 45 7.3 41 41 SSW 3 6 30.18 1022 10 16 0.00 0.00
2:55 pm 14:55 Mostly Cloudy 71 21.7 46 7.5 40 40 NW 5 7 30.18 1022 10 16 0.00 0.00
3:15 pm 15:15 Partly Cloudy 72 22.4 44 6.9 37 37 WSW 7 11 30.15 1021 10 16 0.00 0.00
3:35 pm 15:35 Mostly Cloudy 73 22.7 45 7 36 36 SW 5 7 30.15 1021 10 16 0.00 0.00
3:55 pm 15:55 Mostly Cloudy 73 23 44 6.7 35 35 NW 3 6 30.15 1021 10 16 0.00 0.00
4:15 pm 16:15 Partly Cloudy 72 22.1 46 7.7 40 40 Calm 30.12 1020 10 16 0.00 0.00
4:35 pm 16:35 Sunny 73 22.5 44 6.6 36 36 Calm 30.12 1020 10 16 0.00 0.00
4:55 pm 16:55 Sunny 73 22.7 42 5.6 33 33 Calm 30.12 1020 10 16 0.00 0.00
5:15 pm 17:15 Partly Cloudy 73 22.9 43 6.3 34 34 WSW 3 6 30.12 1020 10 16 0.00 0.00
5:35 pm 17:35 Mostly Cloudy 71 21.7 45 7.1 39 39 WSW 3 6 30.15 1021 10 16 0.00 0.00
5:55 pm 17:55 Mostly Cloudy 72 22.2 43 6.3 36 36 W 3 6 30.12 1020 10 16 0.00 0.00
6:15 pm 18:15 Partly Cloudy 72 22.2 45 7.1 38 38 Calm 30.12 1020 10 16 0.00 0.00
6:35 pm 18:35 Partly Cloudy 72 22 45 7.1 38 38 SSW 5 7 30.15 1021 10 16 0.00 0.00
6:55 pm 18:55 Partly Cloudy 68 19.8 47 8.1 47 47 SW 3 6 30.15 1021 10 16 0.00 0.00
7:15 pm 19:15 Sunny 66 18.8 48 8.7 52 52 SW 6 9 30.15 1021 10 16 0.00 0.00
7:35 pm 19:35 Clear 64 17.7 49 9.2 58 58 SSW 6 9 30.18 1022 10 16 0.00 0.00
7:55 pm 19:55 Clear 63 17 49 9.2 60 60 S 5 7 30.18 1022 10 16 0.00 0.00
8:15 pm 20:15 Clear 62 16.5 50 10.2 67 67 Calm 30.18 1022 10 16 0.00 0.00
8:35 pm 20:35 Clear 60 15.6 51 10.7 73 73 Calm 30.21 1023 10 16 0.00 0.00
8:55 pm 20:55 Clear 59 14.9 50 10 73 73 N 3 6 30.24 1024 10 16 0.00 0.00
9:15 pm 21:15 Clear 60 15.7 49 9.4 66 66 Calm 30.21 1023 10 16 0.00 0.00
9:35 pm 21:35 Clear 59 14.9 48 9.1 68 68 Calm 30.24 1024 10 16 0.00 0.00
9:55 pm 21:55 Clear 57 14.1 49 9.2 73 73 Calm 30.24 1024 10 16 0.00 0.00
10:15 pm 22:15 Clear 56 13.6 49 9.3 75 75 Calm 30.24 1024 10 16 0.00 0.00
10:35 pm 22:35 Clear 55 12.8 49 9.2 79 79 Calm 30.24 1024 10 16 0.00 0.00
10:55 pm 22:55 Clear 55 12.6 48 9 79 79 Calm 30.24 1024 10 16 0.00 0.00
11:15 pm 23:15 Clear 53 11.4 48 8.9 85 85 Calm 30.27 1025 10 16 0.00 0.00
11:35 pm 23:35 Clear 53 11.6 47 8.5 81 81 Calm 30.27 1025 10 16 0.00 0.00
11:55 pm 23:55 Clear 51 10.8 47 8.6 86 86 Calm 30.27 1025 10 16 0.00 0.00

Powered by AerisWeather